| time (UTC) | temp F | wind direction | speed MPH | gust MPH | rain 1hr in | rain 24hr in | rain mn in | humidity % | barometer mb |
| 20260902233524 | 81 | 243 | 4.0 | 19.0 | 0.00 | 0.00 | 0.00 | 14 | 1009.3 |
| 20260902233023 | 81 | 174 | 10.0 | 19.0 | 0.00 | 0.00 | 0.00 | 13 | 1009.3 |
| 20260902232522 | 82 | 153 | 10.0 | 20.0 | 0.00 | 0.00 | 0.00 | 13 | 1009.4 |
| 20260902232022 | 82 | 195 | 6.0 | 20.0 | 0.00 | 0.00 | 0.00 | 13 | 1009.4 |
| 20260902231521 | 81 | 195 | 10.0 | 17.0 | 0.00 | 0.00 | 0.00 | 12 | 1009.4 |
| 20260902231020 | 81 | 221 | 7.0 | 23.0 | 0.00 | 0.00 | 0.00 | 14 | 1009.5 |
| 20260902230520 | 82 | 171 | 8.0 | 23.0 | 0.00 | 0.00 | 0.00 | 14 | 1009.5 |
| 20260902230021 | 82 | 207 | 7.0 | 16.0 | 0.00 | 0.00 | 0.00 | 14 | 1009.5 |
| 20260902225520 | 82 | 171 | 8.0 | 21.0 | 0.00 | 0.00 | 0.00 | 13 | 1009.5 |
| 20260902225021 | 82 | 152 | 11.0 | 21.0 | 0.00 | 0.00 | 0.00 | 14 | 1009.6 |
| 20260902224518 | 81 | 155 | 12.0 | 18.0 | 0.00 | 0.00 | 0.00 | 13 | 1009.6 |
| 20260902224017 | 81 | 205 | 7.0 | 20.0 | 0.00 | 0.00 | 0.00 | 14 | 1009.6 |
| 20260902223517 | 81 | 136 | 6.0 | 20.0 | 0.00 | 0.00 | 0.00 | 14 | 1009.6 |
| 20260902223020 | 82 | 129 | 7.0 | 23.0 | 0.00 | 0.00 | 0.00 | 13 | 1009.6 |
| 20260902222515 | 82 | 243 | 7.0 | 23.0 | 0.00 | 0.00 | 0.00 | 14 | 1009.6 |
| 20260902222014 | 82 | 223 | 9.0 | 17.0 | 0.00 | 0.00 | 0.00 | 14 | 1009.8 |
| 20260902221518 | 82 | 205 | 7.0 | 17.0 | 0.00 | 0.00 | 0.00 | 15 | 1009.7 |
| 20260902221013 | 82 | 141 | 7.0 | 21.0 | 0.00 | 0.00 | 0.00 | 16 | 1009.8 |
| 20260902220513 | 81 | 200 | 9.0 | 21.0 | 0.00 | 0.00 | 0.00 | 16 | 1009.9 |
| 20260902220017 | 81 | 191 | 9.0 | 26.0 | 0.00 | 0.00 | 0.00 | 16 | 1009.8 |
| 20260902215512 | 81 | 186 | 9.0 | 23.0 | 0.00 | 0.00 | 0.00 | 16 | 1009.8 |
| 20260902215011 | 81 | 108 | 9.0 | 23.0 | 0.00 | 0.00 | 0.00 | 17 | 1009.8 |
| 20260902214510 | 81 | 129 | 8.0 | 20.0 | 0.00 | 0.00 | 0.00 | 18 | 1009.9 |
| 20260902214010 | 81 | 145 | 10.0 | 23.0 | 0.00 | 0.00 | 0.00 | 18 | 1009.9 |
| 20260902213511 | 81 | 238 | 8.0 | 23.0 | 0.00 | 0.00 | 0.00 | 17 | 1010.1 |
| 20260902213009 | 82 | 155 | 12.0 | 23.0 | 0.00 | 0.00 | 0.00 | 16 | 1009.9 |
| 20260902212509 | 82 | 226 | 7.0 | 20.0 | 0.00 | 0.00 | 0.00 | 17 | 1010.1 |
| 20260902212008 | 82 | 160 | 6.0 | 22.0 | 0.00 | 0.00 | 0.00 | 16 | 1010.2 |
| 20260902211507 | 83 | 141 | 9.0 | 22.0 | 0.00 | 0.00 | 0.00 | 16 | 1010.1 |
| 20260902211006 | 82 | 184 | 9.0 | 20.0 | 0.00 | 0.00 | 0.00 | 16 | 1010.1 |
| 20260902210505 | 82 | 216 | 9.0 | 20.0 | 0.00 | 0.00 | 0.00 | 17 | 1010.2 |
| 20260902210007 | 82 | 170 | 10.0 | 19.0 | 0.00 | 0.00 | 0.00 | 17 | 1010.2 |
| 20260902205506 | 83 | 155 | 8.0 | 17.0 | 0.00 | 0.00 | 0.00 | 20 | 1010.2 |
| 20260902205003 | 82 | 217 | 6.0 | 17.0 | 0.00 | 0.00 | 0.00 | 19 | 1010.2 |
| 20260902204505 | 82 | 229 | 7.0 | 17.0 | 0.00 | 0.00 | 0.00 | 20 | 1010.4 |
| 20260902204100 | 82 | 132 | 9.0 | 17.0 | 0.00 | 0.00 | 0.00 | 19 | 1010.2 |
| 20260902203600 | 82 | 212 | 8.0 | 19.0 | 0.00 | 0.00 | 0.00 | 22 | 1010.4 |
| 20260902203102 | 82 | 129 | 8.0 | 20.0 | 0.00 | 0.00 | 0.00 | 21 | 1010.4 |
| 20260902202559 | 81 | 248 | 10.0 | 20.0 | 0.00 | 0.00 | 0.00 | 22 | 1010.5 |
| 20260902202057 | 81 | 257 | 7.0 | 23.0 | 0.00 | 0.00 | 0.00 | 23 | 1010.6 |
| 20260902201605 | 81 | 150 | 9.0 | 26.0 | 0.00 | 0.00 | 0.00 | 22 | 1010.6 |
| 20260902201100 | 81 | 212 | 13.0 | 26.0 | 0.00 | 0.00 | 0.00 | 21 | 1010.6 |
| 20260902200556 | 81 | 198 | 9.0 | 21.0 | 0.00 | 0.00 | 0.00 | 23 | 1010.6 |
| 20260902200055 | 81 | 146 | 11.0 | 21.0 | 0.00 | 0.00 | 0.00 | 22 | 1010.8 |
| 20260902195554 | 81 | 241 | 8.0 | 20.0 | 0.00 | 0.00 | 0.00 | 24 | 1010.7 |
| 20260902195053 | 81 | 171 | 8.0 | 20.0 | 0.00 | 0.00 | 0.00 | 24 | 1010.8 |
| 20260902194555 | 81 | 193 | 9.0 | 17.0 | 0.00 | 0.00 | 0.00 | 23 | 1010.9 |
| 20260902194052 | 81 | 185 | 7.0 | 14.0 | 0.00 | 0.00 | 0.00 | 24 | 1010.9 |
| 20260902193551 | 81 | 146 | 7.0 | 21.0 | 0.00 | 0.00 | 0.00 | 24 | 1011.0 |
| 20260902193051 | 80 | 145 | 9.0 | 21.0 | 0.00 | 0.00 | 0.00 | 24 | 1011.1 |
| 20260902192548 | 80 | 152 | 7.0 | 19.0 | 0.00 | 0.00 | 0.00 | 25 | 1011.2 |
| 20260902192048 | 80 | 165 | 9.0 | 22.0 | 0.00 | 0.00 | 0.00 | 25 | 1011.4 |
| 20260902191541 | 80 | 167 | 9.0 | 22.0 | 0.00 | 0.00 | 0.00 | 25 | 1011.4 |
| 20260902191040 | 80 | 105 | 8.0 | 16.0 | 0.00 | 0.00 | 0.00 | 26 | 1011.4 |
| 20260902190539 | 79 | 158 | 7.0 | 16.0 | 0.00 | 0.00 | 0.00 | 25 | 1011.6 |
| 20260902190038 | 79 | 148 | 6.0 | 15.0 | 0.00 | 0.00 | 0.00 | 27 | 1011.6 |
| 20260902185538 | 79 | 244 | 8.0 | 21.0 | 0.00 | 0.00 | 0.00 | 26 | 1011.8 |
| 20260902185037 | 79 | 208 | 9.0 | 21.0 | 0.00 | 0.00 | 0.00 | 27 | 1011.8 |
| 20260902184535 | 79 | 193 | 9.0 | 21.0 | 0.00 | 0.00 | 0.00 | 26 | 1011.8 |
| 20260902184034 | 78 | 172 | 13.0 | 24.0 | 0.00 | 0.00 | 0.00 | 26 | 1011.8 |
| 20260902183534 | 78 | 154 | 9.0 | 24.0 | 0.00 | 0.00 | 0.00 | 28 | 1011.9 |
| 20260902183034 | 77 | 222 | 10.0 | 26.0 | 0.00 | 0.00 | 0.00 | 28 | 1011.9 |
| 20260902182532 | 78 | 181 | 14.0 | 26.0 | 0.00 | 0.00 | 0.00 | 27 | 1012.1 |
| 20260902182032 | 78 | 150 | 13.0 | 24.0 | 0.00 | 0.00 | 0.00 | 27 | 1012.0 |
| 20260902181538 | 78 | 217 | 8.0 | 21.0 | 0.00 | 0.00 | 0.00 | 28 | 1012.1 |
| 20260902181030 | 77 | 188 | 12.0 | 23.0 | 0.00 | 0.00 | 0.00 | 29 | 1012.1 |
| 20260902180629 | 77 | 168 | 10.0 | 23.0 | 0.00 | 0.00 | 0.00 | 29 | 1012.2 |
| 20260902180033 | 77 | 160 | 6.0 | 21.0 | 0.00 | 0.00 | 0.00 | 29 | 1012.3 |
| 20260902175529 | 77 | 146 | 9.0 | 21.0 | 0.00 | 0.00 | 0.00 | 30 | 1012.4 |
| 20260902175029 | 78 | 158 | 9.0 | 23.0 | 0.00 | 0.00 | 0.00 | 30 | 1012.4 |
| 20260902174528 | 77 | 151 | 7.0 | 25.0 | 0.00 | 0.00 | 0.00 | 32 | 1012.4 |
| 20260902174030 | 77 | 136 | 14.0 | 25.0 | 0.00 | 0.00 | 0.00 | 31 | 1012.4 |
| 20260902173528 | 77 | 148 | 11.0 | 21.0 | 0.00 | 0.00 | 0.00 | 32 | 1012.4 |
| 20260902173040 | 77 | 201 | 9.0 | 20.0 | 0.00 | 0.00 | 0.00 | 32 | 1012.4 |
| 20260902172527 | 77 | 167 | 9.0 | 26.0 | 0.00 | 0.00 | 0.00 | 31 | 1012.6 |
| 20260902172027 | 78 | 152 | 11.0 | 26.0 | 0.00 | 0.00 | 0.00 | 33 | 1012.6 |
| 20260902171525 | 77 | 122 | 7.0 | 19.0 | 0.00 | 0.00 | 0.00 | 33 | 1012.5 |
| 20260902171023 | 77 | 139 | 7.0 | 24.0 | 0.00 | 0.00 | 0.00 | 33 | 1012.5 |
| 20260902170525 | 76 | 210 | 11.0 | 26.0 | 0.00 | 0.00 | 0.00 | 32 | 1012.6 |
| 20260902170021 | 77 | 175 | 12.0 | 26.0 | 0.00 | 0.00 | 0.00 | 33 | 1012.6 |
| 20260902165520 | 76 | 194 | 11.0 | 20.0 | 0.00 | 0.00 | 0.00 | 32 | 1012.5 |
| 20260902165020 | 76 | 125 | 5.0 | 25.0 | 0.00 | 0.00 | 0.00 | 34 | 1012.5 |
| 20260902164519 | 76 | 148 | 12.0 | 25.0 | 0.00 | 0.00 | 0.00 | 33 | 1012.5 |
| 20260902164018 | 76 | 152 | 6.0 | 18.0 | 0.00 | 0.00 | 0.00 | 34 | 1012.3 |
| 20260902163517 | 75 | 175 | 7.0 | 18.0 | 0.00 | 0.00 | 0.00 | 35 | 1012.4 |
| 20260902163015 | 75 | 155 | 5.0 | 16.0 | 0.00 | 0.00 | 0.00 | 35 | 1012.3 |
| 20260902162514 | 75 | 219 | 5.0 | 23.0 | 0.00 | 0.00 | 0.00 | 35 | 1012.3 |
| 20260902162014 | 75 | 174 | 7.0 | 18.0 | 0.00 | 0.00 | 0.00 | 36 | 1012.4 |
| 20260902161513 | 75 | 187 | 7.0 | 17.0 | 0.00 | 0.00 | 0.00 | 38 | 1012.4 |
| 20260902161016 | 75 | 162 | 5.0 | 18.0 | 0.00 | 0.00 | 0.00 | 39 | 1012.3 |
| 20260902160512 | 75 | 102 | 7.0 | 17.0 | 0.00 | 0.00 | 0.00 | 38 | 1012.4 |
| 20260902160011 | 75 | 108 | 6.0 | 14.0 | 0.00 | 0.00 | 0.00 | 39 | 1012.4 |
| 20260902155510 | 74 | 158 | 7.0 | 16.0 | 0.00 | 0.00 | 0.00 | 40 | 1012.4 |
| 20260902155010 | 74 | 97 | 6.0 | 19.0 | 0.00 | 0.00 | 0.00 | 40 | 1012.5 |
| 20260902154508 | 74 | 124 | 10.0 | 20.0 | 0.00 | 0.00 | 0.00 | 40 | 1012.4 |
| 20260902154008 | 73 | 143 | 6.0 | 20.0 | 0.00 | 0.00 | 0.00 | 41 | 1012.4 |
| 20260902153506 | 73 | 169 | 4.0 | 15.0 | 0.00 | 0.00 | 0.00 | 42 | 1012.5 |
| 20260902153009 | 72 | 148 | 8.0 | 15.0 | 0.00 | 0.00 | 0.00 | 42 | 1012.5 |
| 20260902152504 | 72 | 157 | 3.0 | 13.0 | 0.00 | 0.00 | 0.00 | 43 | 1012.6 |
| 20260902152003 | 72 | 169 | 6.0 | 19.0 | 0.00 | 0.00 | 0.00 | 43 | 1012.6 |
| 20260902151502 | 72 | 101 | 8.0 | 19.0 | 0.00 | 0.00 | 0.00 | 44 | 1012.6 |
| 20260902151002 | 72 | 150 | 6.0 | 16.0 | 0.00 | 0.00 | 0.00 | 44 | 1012.6 |
| 20260902150501 | 71 | 169 | 7.0 | 16.0 | 0.00 | 0.00 | 0.00 | 44 | 1012.6 |
| 20260902150001 | 72 | 147 | 5.0 | 12.0 | 0.00 | 0.00 | 0.00 | 44 | 1012.6 |
| 20260902145501 | 72 | 143 | 5.0 | 13.0 | 0.00 | 0.00 | 0.00 | 44 | 1012.5 |
| 20260902145059 | 71 | 146 | 7.0 | 13.0 | 0.00 | 0.00 | 0.00 | 45 | 1012.5 |
| 20260902144559 | 71 | 186 | 3.0 | 11.0 | 0.00 | 0.00 | 0.00 | 47 | 1012.6 |
| 20260902144058 | 71 | 231 | 4.0 | 12.0 | 0.00 | 0.00 | 0.00 | 47 | 1012.5 |
| 20260902143556 | 70 | 155 | 5.0 | 13.0 | 0.00 | 0.00 | 0.00 | 48 | 1012.3 |
| 20260902143056 | 70 | 169 | 5.0 | 13.0 | 0.00 | 0.00 | 0.00 | 48 | 1012.4 |
| 20260902142556 | 70 | 137 | 4.0 | 14.0 | 0.00 | 0.00 | 0.00 | 49 | 1012.4 |
| 20260902142056 | 70 | 148 | 8.0 | 14.0 | 0.00 | 0.00 | 0.00 | 49 | 1012.4 |
| 20260902141556 | 69 | 130 | 7.0 | 16.0 | 0.00 | 0.00 | 0.00 | 49 | 1012.4 |
| 20260902141055 | 69 | 179 | 7.0 | 18.0 | 0.00 | 0.00 | 0.00 | 50 | 1012.4 |
| 20260902140555 | 69 | 136 | 8.0 | 18.0 | 0.00 | 0.00 | 0.00 | 50 | 1012.3 |
| 20260902140054 | 69 | 144 | 6.0 | 17.0 | 0.00 | 0.00 | 0.00 | 50 | 1012.2 |
| 20260902135556 | 68 | 141 | 6.0 | 13.0 | 0.00 | 0.00 | 0.00 | 50 | 1012.3 |
| 20260902135053 | 68 | 127 | 7.0 | 16.0 | 0.00 | 0.00 | 0.00 | 51 | 1012.1 |
| 20260902134553 | 68 | 137 | 7.0 | 16.0 | 0.00 | 0.00 | 0.00 | 51 | 1012.1 |
| 20260902134052 | 67 | 162 | 7.0 | 14.0 | 0.00 | 0.00 | 0.00 | 51 | 1012.1 |
| 20260902133552 | 67 | 154 | 6.0 | 11.0 | 0.00 | 0.00 | 0.00 | 51 | 1012.1 |
| 20260902133104 | 67 | 144 | 5.0 | 11.0 | 0.00 | 0.00 | 0.00 | 51 | 1012.1 |
| 20260902132553 | 67 | 172 | 4.0 | 10.0 | 0.00 | 0.00 | 0.00 | 52 | 1012.2 |
| 20260902132051 | 67 | 153 | 5.0 | 10.0 | 0.00 | 0.00 | 0.00 | 52 | 1012.3 |
| 20260902131552 | 67 | 194 | 4.0 | 10.0 | 0.00 | 0.00 | 0.00 | 53 | 1012.4 |
| 20260902131050 | 67 | 225 | 5.0 | 11.0 | 0.00 | 0.00 | 0.00 | 53 | 1012.3 |
| 20260902130550 | 66 | 221 | 5.0 | 11.0 | 0.00 | 0.00 | 0.00 | 54 | 1012.3 |
| 20260902130049 | 66 | 165 | 5.0 | 10.0 | 0.00 | 0.00 | 0.00 | 55 | 1012.2 |
| 20260902125549 | 66 | 176 | 3.0 | 10.0 | 0.00 | 0.00 | 0.00 | 55 | 1012.2 |
| 20260902125052 | 66 | 167 | 4.0 | 8.0 | 0.00 | 0.00 | 0.00 | 54 | 1012.2 |
| 20260902124549 | 67 | 215 | 4.0 | 10.0 | 0.00 | 0.00 | 0.00 | 54 | 1012.2 |
| 20260902124047 | 67 | 158 | 5.0 | 11.0 | 0.00 | 0.00 | 0.00 | 53 | 1012.2 |
| 20260902123547 | 67 | 149 | 4.0 | 11.0 | 0.00 | 0.00 | 0.00 | 53 | 1012.2 |
| 20260902123049 | 67 | 163 | 3.0 | 10.0 | 0.00 | 0.00 | 0.00 | 53 | 1012.2 |
| 20260902122547 | 67 | 158 | 4.0 | 10.0 | 0.00 | 0.00 | 0.00 | 52 | 1012.2 |
| 20260902122046 | 67 | 139 | 5.0 | 10.0 | 0.00 | 0.00 | 0.00 | 52 | 1012.2 |
| 20260902121546 | 67 | 170 | 4.0 | 8.0 | 0.00 | 0.00 | 0.00 | 52 | 1012.2 |
| 20260902121045 | 68 | 172 | 3.0 | 8.0 | 0.00 | 0.00 | 0.00 | 52 | 1012.2 |
| 20260902120545 | 68 | 162 | 4.0 | 11.0 | 0.00 | 0.00 | 0.00 | 51 | 1012.3 |
| 20260902120047 | 68 | 159 | 5.0 | 13.0 | 0.00 | 0.00 | 0.00 | 51 | 1012.3 |
| 20260902115544 | 68 | 161 | 6.0 | 13.0 | 0.00 | 0.00 | 0.00 | 51 | 1012.2 |
| 20260902115045 | 68 | 149 | 3.0 | 9.0 | 0.00 | 0.00 | 0.00 | 51 | 1012.2 |
| 20260902114552 | 68 | 148 | 5.0 | 11.0 | 0.00 | 0.00 | 0.00 | 50 | 1012.3 |
| 20260902114045 | 67 | 173 | 4.0 | 10.0 | 0.00 | 0.00 | 0.00 | 51 | 1012.3 |
| 20260902113546 | 67 | 158 | 4.0 | 7.0 | 0.00 | 0.00 | 0.00 | 51 | 1012.3 |
| 20260902113044 | 67 | 203 | 2.0 | 5.0 | 0.00 | 0.00 | 0.00 | 51 | 1012.5 |
| 20260902112544 | 66 | 153 | 1.0 | 5.0 | 0.00 | 0.00 | 0.00 | 51 | 1012.3 |
| 20260902112046 | 66 | 223 | 1.0 | 7.0 | 0.00 | 0.00 | 0.00 | 51 | 1012.3 |
| 20260902111547 | 67 | 159 | 2.0 | 7.0 | 0.00 | 0.00 | 0.00 | 50 | 1012.3 |
| 20260902111043 | 67 | 226 | 3.0 | 6.0 | 0.00 | 0.00 | 0.00 | 50 | 1012.3 |
| 20260902110542 | 67 | 224 | 3.0 | 6.0 | 0.00 | 0.00 | 0.00 | 50 | 1012.3 |
| 20260902110057 | 67 | 224 | 3.0 | 7.0 | 0.00 | 0.00 | 0.00 | 49 | 1012.3 |
| 20260902105541 | 67 | 223 | 2.0 | 9.0 | 0.00 | 0.00 | 0.00 | 49 | 1012.3 |
| 20260902105041 | 67 | 244 | 4.0 | 9.0 | 0.00 | 0.00 | 0.00 | 49 | 1012.2 |
| 20260902104542 | 67 | 229 | 2.0 | 8.0 | 0.00 | 0.00 | 0.00 | 49 | 1012.1 |
| 20260902104042 | 67 | 208 | 3.0 | 9.0 | 0.00 | 0.00 | 0.00 | 49 | 1012.2 |
| 20260902103541 | 67 | 235 | 4.0 | 8.0 | 0.00 | 0.00 | 0.00 | 49 | 1012.3 |
| 20260902103042 | 67 | 219 | 4.0 | 8.0 | 0.00 | 0.00 | 0.00 | 50 | 1012.2 |
| 20260902102545 | 67 | 233 | 3.0 | 9.0 | 0.00 | 0.00 | 0.00 | 51 | 1012.2 |
| 20260902102042 | 67 | 203 | 4.0 | 10.0 | 0.00 | 0.00 | 0.00 | 51 | 1012.1 |
| 20260902101541 | 67 | 205 | 4.0 | 10.0 | 0.00 | 0.00 | 0.00 | 51 | 1012.2 |
| 20260902101038 | 67 | 212 | 5.0 | 10.0 | 0.00 | 0.00 | 0.00 | 52 | 1012.2 |
| 20260902100541 | 68 | 215 | 4.0 | 8.0 | 0.00 | 0.00 | 0.00 | 51 | 1012.2 |
| 20260902100037 | 68 | 173 | 3.0 | 8.0 | 0.00 | 0.00 | 0.00 | 51 | 1012.2 |
| 20260902095537 | 68 | 206 | 3.0 | 7.0 | 0.00 | 0.00 | 0.00 | 51 | 1012.3 |
| 20260902095035 | 68 | 140 | 3.0 | 8.0 | 0.00 | 0.00 | 0.00 | 51 | 1012.2 |
| 20260902094635 | 68 | 209 | 3.0 | 9.0 | 0.00 | 0.00 | 0.00 | 51 | 1012.3 |
| 20260902094035 | 68 | 152 | 3.0 | 10.0 | 0.00 | 0.00 | 0.00 | 51 | 1012.4 |
| 20260902093536 | 68 | 216 | 4.0 | 10.0 | 0.00 | 0.00 | 0.00 | 51 | 1012.4 |
| 20260902093034 | 67 | 203 | 4.0 | 9.0 | 0.00 | 0.00 | 0.00 | 51 | 1012.3 |
| 20260902092534 | 68 | 210 | 2.0 | 10.0 | 0.00 | 0.00 | 0.00 | 52 | 1012.4 |
| 20260902092036 | 68 | 150 | 4.0 | 10.0 | 0.00 | 0.00 | 0.00 | 52 | 1012.5 |
| 20260902091533 | 68 | 160 | 3.0 | 9.0 | 0.00 | 0.00 | 0.00 | 52 | 1012.5 |
| 20260902091032 | 68 | 172 | 3.0 | 12.0 | 0.00 | 0.00 | 0.00 | 52 | 1012.5 |
| 20260902090532 | 68 | 156 | 3.0 | 12.0 | 0.00 | 0.00 | 0.00 | 52 | 1012.5 |
| 20260902090032 | 68 | 221 | 5.0 | 12.0 | 0.00 | 0.00 | 0.00 | 52 | 1012.5 |
| 20260902085531 | 68 | 145 | 6.0 | 11.0 | 0.00 | 0.00 | 0.00 | 52 | 1012.5 |
| 20260902085030 | 68 | 113 | 7.0 | 12.0 | 0.00 | 0.00 | 0.00 | 53 | 1012.5 |
| 20260902084538 | 68 | 142 | 5.0 | 11.0 | 0.00 | 0.00 | 0.00 | 54 | 1012.5 |
| 20260902084031 | 68 | 146 | 5.0 | 12.0 | 0.00 | 0.00 | 0.00 | 55 | 1012.5 |
| 20260902083531 | 68 | 158 | 6.0 | 14.0 | 0.00 | 0.00 | 0.00 | 55 | 1012.5 |
| 20260902083028 | 68 | 127 | 7.0 | 14.0 | 0.00 | 0.00 | 0.00 | 55 | 1012.5 |
| 20260902082527 | 69 | 172 | 6.0 | 13.0 | 0.00 | 0.00 | 0.00 | 55 | 1012.6 |
| 20260902082027 | 69 | 178 | 7.0 | 14.0 | 0.00 | 0.00 | 0.00 | 54 | 1012.6 |
| 20260902081526 | 69 | 179 | 6.0 | 14.0 | 0.00 | 0.00 | 0.00 | 53 | 1012.7 |
| 20260902081025 | 69 | 157 | 7.0 | 17.0 | 0.00 | 0.00 | 0.00 | 53 | 1012.7 |
| 20260902080525 | 69 | 150 | 8.0 | 17.0 | 0.00 | 0.00 | 0.00 | 53 | 1012.7 |
| 20260902080024 | 69 | 195 | 6.0 | 16.0 | 0.00 | 0.00 | 0.00 | 53 | 1012.7 |
| 20260902075524 | 69 | 143 | 9.0 | 16.0 | 0.00 | 0.00 | 0.00 | 53 | 1012.6 |
| 20260902075023 | 69 | 147 | 7.0 | 15.0 | 0.00 | 0.00 | 0.00 | 53 | 1012.6 |
| 20260902074522 | 69 | 144 | 6.0 | 14.0 | 0.00 | 0.00 | 0.00 | 52 | 1012.6 |
| 20260902074022 | 69 | 120 | 8.0 | 14.0 | 0.00 | 0.00 | 0.00 | 51 | 1012.6 |
| 20260902073520 | 69 | 136 | 6.0 | 11.0 | 0.00 | 0.00 | 0.00 | 51 | 1012.6 |
| 20260902073020 | 69 | 179 | 5.0 | 11.0 | 0.00 | 0.00 | 0.00 | 50 | 1012.5 |
| 20260902072520 | 69 | 148 | 5.0 | 12.0 | 0.00 | 0.00 | 0.00 | 49 | 1012.5 |
| 20260902072019 | 69 | 139 | 5.0 | 11.0 | 0.00 | 0.00 | 0.00 | 49 | 1012.5 |
| 20260902071529 | 69 | 183 | 4.0 | 9.0 | 0.00 | 0.00 | 0.00 | 48 | 1012.5 |
| 20260902071021 | 69 | 144 | 4.0 | 9.0 | 0.00 | 0.00 | 0.00 | 48 | 1012.5 |
| 20260902070517 | 69 | 195 | 2.0 | 9.0 | 0.00 | 0.00 | 0.00 | 49 | 1012.5 |
| 20260902070016 | 69 | 153 | 1.0 | 11.0 | 0.00 | 0.00 | 0.00 | 49 | 1012.5 |
| 20260902065516 | 69 | 223 | 4.0 | 11.0 | 0.00 | 0.00 | 0.00 | 50 | 1012.6 |
| 20260902065016 | 69 | 167 | 4.0 | 8.0 | 0.00 | 0.00 | 0.00 | 50 | 1012.6 |
| 20260902064523 | 69 | 175 | 3.0 | 8.0 | 0.00 | 0.00 | 0.00 | 51 | 1012.6 |
| 20260902064013 | 69 | 159 | 4.0 | 8.0 | 0.00 | 0.00 | 0.00 | 51 | 1012.6 |
| 20260902063513 | 69 | 118 | 4.0 | 8.0 | 0.00 | 0.00 | 0.00 | 52 | 1012.6 |
| 20260902063025 | 69 | 137 | 4.0 | 8.0 | 0.00 | 0.00 | 0.00 | 52 | 1012.5 |
| 20260902062513 | 69 | 155 | 4.0 | 9.0 | 0.00 | 0.00 | 0.00 | 53 | 1012.5 |
| 20260902062011 | 69 | 156 | 5.0 | 10.0 | 0.00 | 0.00 | 0.00 | 53 | 1012.4 |
| 20260902061512 | 69 | 143 | 6.0 | 11.0 | 0.00 | 0.00 | 0.00 | 53 | 1012.4 |
| 20260902061011 | 69 | 141 | 4.0 | 9.0 | 0.00 | 0.00 | 0.00 | 53 | 1012.4 |
| 20260902060508 | 70 | 161 | 5.0 | 11.0 | 0.00 | 0.00 | 0.00 | 53 | 1012.4 |
| 20260902060007 | 70 | 157 | 4.0 | 8.0 | 0.00 | 0.00 | 0.00 | 53 | 1012.4 |
| 20260902055508 | 70 | 147 | 3.0 | 7.0 | 0.00 | 0.00 | 0.00 | 52 | 1012.4 |
| 20260902055007 | 70 | 155 | 3.0 | 12.0 | 0.00 | 0.00 | 0.00 | 52 | 1012.5 |
| 20260902054513 | 70 | 147 | 4.0 | 12.0 | 0.00 | 0.00 | 0.00 | 52 | 1012.5 |
| 20260902054006 | 70 | 143 | 4.0 | 12.0 | 0.00 | 0.00 | 0.00 | 52 | 1012.6 |
| 20260902053507 | 70 | 167 | 5.0 | 12.0 | 0.00 | 0.00 | 0.00 | 52 | 1012.6 |
| 20260902053016 | 70 | 140 | 4.0 | 8.0 | 0.00 | 0.00 | 0.00 | 53 | 1012.6 |
| 20260902052508 | 70 | 169 | 2.0 | 7.0 | 0.00 | 0.00 | 0.00 | 52 | 1012.6 |
| 20260902052006 | 70 | 155 | 2.0 | 6.0 | 0.00 | 0.00 | 0.00 | 50 | 1012.8 |
| 20260902051506 | 70 | 172 | 1.0 | 7.0 | 0.00 | 0.00 | 0.00 | 50 | 1012.7 |
| 20260902051006 | 71 | 193 | 1.0 | 7.0 | 0.00 | 0.00 | 0.00 | 50 | 1012.8 |
| 20260902050506 | 71 | 161 | 3.0 | 8.0 | 0.00 | 0.00 | 0.00 | 49 | 1012.7 |
| 20260902050008 | 71 | 162 | 4.0 | 9.0 | 0.00 | 0.00 | 0.00 | 49 | 1012.7 |
| 20260902045505 | 71 | 144 | 4.0 | 9.0 | 0.00 | 0.00 | 0.00 | 50 | 1012.7 |
| 20260902045008 | 71 | 146 | 3.0 | 9.0 | 0.00 | 0.00 | 0.00 | 51 | 1012.8 |
| 20260902044505 | 72 | 194 | 2.0 | 9.0 | 0.00 | 0.00 | 0.00 | 51 | 1012.8 |
| 20260902044006 | 72 | 155 | 3.0 | 11.0 | 0.00 | 0.00 | 0.00 | 51 | 1012.7 |
| 20260902043504 | 72 | 160 | 5.0 | 11.0 | 0.00 | 0.00 | 0.00 | 51 | 1012.7 |
| 20260902043004 | 71 | 160 | 3.0 | 10.0 | 0.00 | 0.00 | 0.00 | 51 | 1012.7 |
| 20260902042505 | 71 | 157 | 2.0 | 10.0 | 0.00 | 0.00 | 0.00 | 51 | 1012.8 |
| 20260902042004 | 72 | 167 | 4.0 | 9.0 | 0.00 | 0.00 | 0.00 | 50 | 1012.7 |
| 20260902041505 | 72 | 213 | 4.0 | 9.0 | 0.00 | 0.00 | 0.00 | 50 | 1012.7 |
| 20260902041003 | 72 | 176 | 5.0 | 11.0 | 0.00 | 0.00 | 0.00 | 50 | 1012.7 |
| 20260902040504 | 71 | 153 | 2.0 | 8.0 | 0.00 | 0.00 | 0.00 | 50 | 1012.7 |
| 20260902040003 | 72 | 172 | 3.0 | 8.0 | 0.00 | 0.00 | 0.00 | 50 | 1012.7 |
| 20260902035502 | 72 | 153 | 2.0 | 6.0 | 0.00 | 0.00 | 0.00 | 50 | 1012.6 |
| 20260902035004 | 72 | 158 | 2.0 | 10.0 | 0.00 | 0.00 | 0.00 | 51 | 1012.5 |
| 20260902034503 | 72 | 165 | 4.0 | 11.0 | 0.00 | 0.00 | 0.00 | 51 | 1012.6 |
| 20260902034002 | 72 | 165 | 3.0 | 11.0 | 0.00 | 0.00 | 0.00 | 51 | 1012.5 |
| 20260902033502 | 72 | 177 | 4.0 | 9.0 | 0.00 | 0.00 | 0.00 | 51 | 1012.5 |
| 20260902033002 | 72 | 143 | 4.0 | 9.0 | 0.00 | 0.00 | 0.00 | 51 | 1012.6 |
| 20260902032505 | 72 | 162 | 3.0 | 7.0 | 0.00 | 0.00 | 0.00 | 51 | 1012.4 |
| 20260902032002 | 72 | 155 | 2.0 | 8.0 | 0.00 | 0.00 | 0.00 | 50 | 1012.4 |
| 20260902031503 | 73 | 169 | 4.0 | 8.0 | 0.00 | 0.00 | 0.00 | 49 | 1012.3 |
| 20260902031003 | 73 | 140 | 3.0 | 8.0 | 0.00 | 0.00 | 0.00 | 49 | 1012.3 |
| 20260902030500 | 73 | 152 | 4.0 | 11.0 | 0.00 | 0.00 | 0.00 | 48 | 1012.2 |
| 20260902030002 | 73 | 161 | 4.0 | 9.0 | 0.00 | 0.01 | 0.00 | 48 | 1012.1 |
| 20260902025501 | 74 | 146 | 3.0 | 12.0 | 0.00 | 0.01 | 0.00 | 48 | 1012.0 |
| 20260902025002 | 74 | 174 | 5.0 | 12.0 | 0.00 | 0.01 | 0.00 | 47 | 1012.1 |
| 20260902024601 | 74 | 165 | 4.0 | 12.0 | 0.00 | 0.01 | 0.00 | 47 | 1011.9 |
| 20260902024100 | 74 | 144 | 6.0 | 13.0 | 0.00 | 0.01 | 0.00 | 48 | 1011.9 |
| 20260902023559 | 74 | 162 | 5.0 | 13.0 | 0.00 | 0.01 | 0.00 | 48 | 1011.9 |
| 20260902023103 | 74 | 174 | 3.0 | 8.0 | 0.00 | 0.01 | 0.00 | 48 | 1012.0 |
| 20260902022600 | 74 | 208 | 3.0 | 9.0 | 0.00 | 0.01 | 0.00 | 47 | 1012.0 |
| 20260902022101 | 74 | 195 | 4.0 | 12.0 | 0.00 | 0.01 | 0.00 | 46 | 1011.9 |
| 20260902021608 | 74 | 155 | 3.0 | 12.0 | 0.00 | 0.01 | 0.00 | 45 | 1012.0 |
| 20260902021058 | 75 | 153 | 4.0 | 10.0 | 0.00 | 0.01 | 0.00 | 44 | 1011.9 |
| 20260902020557 | 75 | 148 | 5.0 | 11.0 | 0.00 | 0.01 | 0.00 | 43 | 1012.0 |
| 20260902020058 | 75 | 146 | 5.0 | 12.0 | 0.00 | 0.01 | 0.00 | 42 | 1012.0 |
| 20260902015559 | 75 | 143 | 5.0 | 10.0 | 0.00 | 0.01 | 0.00 | 41 | 1012.1 |
| 20260902015056 | 76 | 152 | 4.0 | 13.0 | 0.00 | 0.01 | 0.00 | 41 | 1012.1 |
| 20260902014559 | 76 | 172 | 5.0 | 13.0 | 0.00 | 0.01 | 0.00 | 40 | 1012.0 |
| 20260902014055 | 77 | 158 | 6.0 | 14.0 | 0.00 | 0.01 | 0.00 | 40 | 1012.1 |
| 20260902013555 | 77 | 154 | 8.0 | 14.0 | 0.00 | 0.01 | 0.00 | 39 | 1012.0 |
| 20260902013055 | 77 | 148 | 8.0 | 14.0 | 0.00 | 0.01 | 0.00 | 39 | 1012.1 |
| 20260902012555 | 78 | 160 | 5.0 | 13.0 | 0.00 | 0.01 | 0.00 | 39 | 1012.1 |
| 20260902012054 | 78 | 141 | 6.0 | 15.0 | 0.00 | 0.01 | 0.00 | 38 | 1012.1 |
| 20260902011554 | 78 | 147 | 7.0 | 18.0 | 0.00 | 0.01 | 0.00 | 38 | 1012.2 |
| 20260902011053 | 78 | 139 | 10.0 | 18.0 | 0.00 | 0.01 | 0.00 | 38 | 1012.2 |
| 20260902010553 | 78 | 138 | 6.0 | 16.0 | 0.00 | 0.01 | 0.00 | 37 | 1012.2 |
| 20260902010052 | 79 | 131 | 10.0 | 19.0 | 0.00 | 0.01 | 0.00 | 38 | 1012.3 |
| 20260902005551 | 79 | 126 | 7.0 | 16.0 | 0.00 | 0.03 | 0.00 | 38 | 1012.4 |
| 20260902005055 | 79 | 133 | 7.0 | 18.0 | 0.00 | 0.03 | 0.00 | 38 | 1012.4 |
| 20260902004551 | 79 | 124 | 7.0 | 21.0 | 0.00 | 0.03 | 0.00 | 38 | 1012.5 |
| 20260902004050 | 80 | 133 | 11.0 | 23.0 | 0.00 | 0.03 | 0.00 | 37 | 1012.5 |
| 20260902003550 | 80 | 139 | 12.0 | 23.0 | 0.00 | 0.03 | 0.00 | 36 | 1012.6 |
| 20260902003050 | 80 | 179 | 10.0 | 22.0 | 0.00 | 0.03 | 0.00 | 36 | 1012.7 |
| 20260902002550 | 80 | 150 | 10.0 | 22.0 | 0.00 | 0.03 | 0.00 | 36 | 1012.6 |
| 20260902002050 | 80 | 137 | 7.0 | 17.0 | 0.00 | 0.03 | 0.00 | 36 | 1012.7 |
| 20260902001549 | 80 | 166 | 8.0 | 18.0 | 0.00 | 0.03 | 0.00 | 36 | 1012.8 |
| 20260902001052 | 80 | 153 | 9.0 | 18.0 | 0.00 | 0.03 | 0.00 | 36 | 1012.8 |
| 20260902000548 | 80 | 146 | 8.0 | 14.0 | 0.00 | 0.03 | 0.00 | 36 | 1012.9 |
| 20260902000052 | 80 | 132 | 9.0 | 16.0 | 0.00 | 0.03 | 0.00 | 37 | 1012.9 |
| 20260901235549 | 79 | 116 | 7.0 | 17.0 | 0.00 | 0.16 | 0.00 | 36 | 1012.9 |
| 20260901235046 | 80 | 156 | 11.0 | 18.0 | 0.00 | 0.16 | 0.00 | 36 | 1012.9 |
| 20260901234557 | 80 | 152 | 10.0 | 18.0 | 0.00 | 0.16 | 0.00 | 36 | 1013.1 |
| 20260901234046 | 80 | 176 | 8.0 | 19.0 | 0.00 | 0.16 | 0.00 | 36 | 1013.0 |